Weather History for Falls City, NE

Change the Weather History Date:

Thursday, April 3, 2014

  Actual Average Record
Temperature  
Mean Temperature 42 °F -  
Max Temperature 46 °F 59 °F 89 °F (2011)
Min Temperature 35 °F 36 °F 8 °F (1975)
Degree Days  
Heating Degree Days 24    
Moisture  
Dew Point 43 °F    
Average Humidity 97    
Maximum Humidity 100    
Minimum Humidity 89    
Precipitation  
Precipitation 0.19 in - - ()
Sea Level Pressure  
Sea Level Pressure 29.67 in    
Wind  
Wind Speed 11 mph (North)    
Max Wind Speed 22 mph    
Max Gust Speed 29 mph    
Visibility 4 miles    
Events Fog , Rain , Snow , Thunderstorm    
Averages and records for this station are not official NWS values.
T = Trace of Precipitation, MM = Missing Value Source: NWS Daily Summary

Daily Weather History Graph

Daily Weather History Graph

Search for Another Location

Airport:

Trip Planner

Search our weather history database for the weather conditions in past years. The results will help you decide how hot, cold, wet, or windy it might be!

Date:

Astronomy

Apr. 03, 2014 Rise Set
Actual Time 7:03 AM CDT 7:48 PM CDT
Civil Twilight 6:35 AM CDT 8:16 PM CDT
Nautical Twilight 6:03 AM CDT 8:48 PM CDT
Astronomical Twilight 5:29 AM CDT 9:22 PM CDT
Moon 9:32 AM CDT (4/3) No Moon Set
Length of Visible Light 13h 40m
Length of Day
12h 45m
Waxing Crescent, 17% of the Moon is Illuminated
Apr 3
Waxing Crescent
Apr 7
First Quarter
Apr 15
Full
Apr 22
Last Quarter
Apr 29
New

Hourly Weather History & Observations

Time (CDT) Temp. Windchill Dew Point Humidity Pressure Visibility Wind Dir Wind Speed Gust Speed Precip Events Conditions
12:03 AM 44.1 °F 37.7 °F 43.0 °F 96% 29.70 in 2.0 mi NNE 12.7 mph - N/A   Overcast
12:53 AM 44.1 °F 39.5 °F 43.0 °F 96% 29.70 in 2.5 mi NE 8.1 mph - N/A   Overcast
1:05 AM 44.1 °F 39.5 °F 43.0 °F 96% 29.70 in 3.0 mi NE 8.1 mph - N/A   Overcast
1:39 AM 44.1 °F 35.4 °F 43.0 °F 96% 29.61 in 2.0 mi East 21.9 mph 26.5 mph 0.02 in Rain Rain
1:53 AM 44.1 °F 38.1 °F 44.1 °F 100% 29.65 in 4.0 mi ENE 11.5 mph - 0.02 in Rain Light Rain
2:14 AM 45.0 °F 40.6 °F 44.1 °F 97% 29.70 in 6.0 mi NNW 8.1 mph - 0.01 in Rain , Thunderstorm Light Rain
2:28 AM 45.0 °F 41.8 °F 44.1 °F 97% 29.69 in 5.0 mi NNE 5.8 mph - 0.01 in Rain Light Rain
2:42 AM 45.0 °F 39.3 °F 43.0 °F 93% 29.69 in 5.0 mi NNE 11.5 mph - 0.02 in Rain , Thunderstorm Light Rain
2:53 AM 45.0 °F 40.1 °F 44.1 °F 97% 29.72 in 6.0 mi NNE 9.2 mph - 0.02 in Rain Light Rain
3:17 AM 45.0 °F 39.7 °F 43.0 °F 93% 29.69 in 5.0 mi North 10.4 mph - 0.02 in Rain , Thunderstorm Rain
3:32 AM 45.0 °F - 44.1 °F 97% 29.72 in 4.0 mi Calm Calm - 0.05 in Rain Light Rain
3:43 AM 45.0 °F 41.2 °F 44.1 °F 97% 29.69 in 6.0 mi East 6.9 mph - 0.05 in Rain Light Rain
3:50 AM 44.6 °F 38.4 °F 44.6 °F 100% 29.65 in 4.0 mi East 12.7 mph - 0.07 in Rain , Thunderstorm Rain
3:53 AM 45.0 °F 37.6 °F 44.1 °F 97% 29.63 in 3.0 mi East 17.3 mph - 0.08 in Rain , Thunderstorm Rain
4:00 AM 45.0 °F 38.5 °F 44.1 °F 97% 29.62 in 3.0 mi East 13.8 mph - 0.00 in Rain Light Rain
4:17 AM 46.0 °F 39.6 °F 45.0 °F 96% 29.63 in 6.0 mi East 15.0 mph - 0.00 in Rain Light Rain
4:53 AM 46.0 °F 40.6 °F 45.0 °F 96% 29.64 in 6.0 mi ESE 11.5 mph - 0.02 in Rain Light Rain
5:06 AM 46.4 °F 44.3 °F 44.6 °F 93% 29.65 in 7.0 mi East 4.6 mph - N/A Rain Light Rain
5:36 AM 46.0 °F 41.9 °F 45.0 °F 96% 29.65 in 5.0 mi North 8.1 mph - 0.01 in Rain , Thunderstorm Light Thunderstorms and Rain
5:51 AM 46.4 °F 42.4 °F 44.6 °F 93% 29.64 in 5.0 mi North 8.1 mph - 0.02 in Rain Light Rain
5:53 AM 46.0 °F 42.5 °F 45.0 °F 96% 29.65 in 5.0 mi NNE 6.9 mph - 0.02 in Rain Light Rain
6:13 AM 46.0 °F 41.0 °F 45.0 °F 96% 29.67 in 6.0 mi NW 10.4 mph - 0.00 in   Overcast
6:34 AM 45.0 °F 40.6 °F 45.0 °F 100% 29.67 in 5.0 mi NNW 8.1 mph - 0.00 in   Overcast
6:45 AM 45.0 °F 41.2 °F 45.0 °F 100% 29.67 in 4.0 mi North 6.9 mph - 0.00 in   Overcast
6:53 AM 45.0 °F 40.6 °F 44.1 °F 97% 29.68 in 5.0 mi North 8.1 mph - 0.00 in   Overcast
7:53 AM 45.0 °F 41.8 °F 44.1 °F 97% 29.68 in 2.5 mi North 5.8 mph - N/A   Overcast
8:53 AM 45.0 °F 41.2 °F 44.1 °F 97% 29.68 in 1.8 mi NNE 6.9 mph - N/A   Overcast
9:04 AM 45.0 °F 39.7 °F 44.1 °F 97% 29.66 in 2.0 mi NNE 10.4 mph - N/A   Overcast
9:17 AM 45.0 °F 40.1 °F 44.1 °F 97% 29.66 in 1.8 mi NNE 9.2 mph - N/A   Overcast
9:48 AM 44.6 °F 38.8 °F 44.6 °F 100% 29.66 in 0.8 mi NNE 11.5 mph - N/A   Overcast
9:53 AM 45.0 °F 40.6 °F 44.1 °F 97% 29.68 in 0.5 mi NNE 8.1 mph - N/A Fog Fog
10:15 AM 45.0 °F 39.3 °F 44.1 °F 97% 29.66 in 0.2 mi NNE 11.5 mph - 0.00 in Fog , Rain Light Rain
10:53 AM 46.0 °F 40.6 °F 45.0 °F 96% 29.65 in 0.2 mi NNE 11.5 mph - 0.01 in Fog Fog
11:53 AM 46.0 °F 41.4 °F 45.0 °F 96% 29.64 in 0.2 mi NNE 9.2 mph - 0.00 in Fog Fog
12:53 PM 45.0 °F 38.9 °F 44.1 °F 97% 29.63 in 0.2 mi NNE 12.7 mph - 0.00 in Fog Fog
1:53 PM 44.1 °F 38.1 °F 43.0 °F 96% 29.65 in 0.2 mi NNE 11.5 mph - N/A Fog Fog
2:30 PM 44.1 °F 40.1 °F 44.1 °F 100% 29.63 in 0.5 mi North 6.9 mph - N/A Fog Fog
2:53 PM 44.1 °F 39.5 °F 44.1 °F 100% 29.63 in 0.8 mi NNE 8.1 mph - N/A   Mist
3:03 PM 44.1 °F 39.0 °F 44.1 °F 100% 29.62 in 1.2 mi North 9.2 mph - N/A   Overcast
3:53 PM 44.1 °F 37.4 °F 43.0 °F 96% 29.62 in 1.8 mi NNW 13.8 mph - 0.00 in Rain Light Rain
4:05 PM 44.1 °F 38.1 °F 43.0 °F 96% 29.62 in 1.8 mi NNW 11.5 mph - 0.00 in Rain Light Rain
4:18 PM 43.0 °F 36.4 °F 42.1 °F 97% 29.62 in 2.0 mi NNW 12.7 mph 19.6 mph 0.00 in   Overcast
4:32 PM 43.0 °F 36.8 °F 42.1 °F 97% 29.64 in 1.8 mi NNW 11.5 mph - 0.00 in   Overcast
4:34 PM 43.0 °F 36.0 °F 42.1 °F 97% 29.64 in 2.0 mi NNW 13.8 mph - 0.00 in   Overcast
4:53 PM 43.0 °F 36.8 °F 42.1 °F 97% 29.65 in 2.5 mi NNW 11.5 mph - 0.00 in   Overcast
5:21 PM 42.1 °F 35.2 °F 42.1 °F 100% 29.65 in 1.8 mi NW 12.7 mph - 0.00 in Rain Light Rain
5:35 PM 42.1 °F 35.7 °F 42.1 °F 100% 29.65 in 2.5 mi NNW 11.5 mph 23.0 mph 0.01 in Rain Light Rain
5:43 PM 42.1 °F 35.2 °F 42.1 °F 100% 29.64 in 3.0 mi NNW 12.7 mph 21.9 mph 0.01 in   Overcast
5:53 PM 42.1 °F 35.7 °F 42.1 °F 100% 29.66 in 3.0 mi NNW 11.5 mph - 0.01 in   Overcast
6:05 PM 42.1 °F 35.2 °F 42.1 °F 100% 29.66 in 2.5 mi NNW 12.7 mph - N/A   Overcast
6:18 PM 41.0 °F 33.9 °F 41.0 °F 100% 29.67 in 4.0 mi NNW 12.7 mph 20.7 mph N/A   Overcast
6:40 PM 41.0 °F 33.5 °F 41.0 °F 100% 29.65 in 8.0 mi NNW 13.8 mph 23.0 mph N/A   Overcast
6:53 PM 41.0 °F 33.1 °F 39.9 °F 96% 29.67 in 4.0 mi NNW 15.0 mph 19.6 mph N/A   Overcast
7:53 PM 39.9 °F 32.1 °F 37.9 °F 93% 29.76 in 4.0 mi WNW 13.8 mph - 0.00 in Rain Light Rain
8:53 PM 37.9 °F 29.6 °F 37.9 °F 100% 29.73 in 5.0 mi NW 13.8 mph - 0.00 in   Overcast
9:51 PM 37.4 °F 27.8 °F 37.4 °F 100% 29.74 in 10.0 mi WNW 17.3 mph - N/A   Overcast
10:48 PM 37.4 °F 27.5 °F 35.6 °F 93% 29.77 in 8.0 mi WNW 18.4 mph - N/A   Overcast
10:53 PM 37.0 °F 27.0 °F 34.0 °F 89% 29.78 in 10.0 mi WNW 18.4 mph 25.3 mph N/A   Overcast
11:53 PM 35.1 °F 24.8 °F 35.1 °F 100% 29.79 in 10.0 mi WNW 17.3 mph 28.8 mph 0.01 in Snow Light Snow